Location: Invercargill
(46.4000°S, 168.3500°E)
Time: 17:54:12
(UTC+12:00)

COSMO-SKYMED 1 - Pass Details

Date: 14 May 2021
Orbit: 621 x 623 km, 97.9° (Epoch: 14 June)

Event Time Altitude Azimuth Distance (km) Brightness Sun altitude
Rises 17:59:30 0° 11° (N) 2,900 6.1 -6.3°
Reaches altitude 10° 18:01:41 10° 9° (N) 2,002 5.3 -6.6°
Maximum altitude 18:06:03 77° 282° (WNW) 655 2.8 -7.3°
Drops below altitude 10° 18:10:29 10° 196° (SSW) 2,032 5.2 -8.0°
Sets 18:12:42 0° 194° (SSW) 2,947 6.0 -8.4°
